Location: East Irvine
(33.6759°N, 117.7598°W)
Time: 01:49:39
(UTC+00:00)

Landsat 7 - Pass Details

Date: 15 November 2025
Orbit: 680 x 682 km, 97.9° (Epoch: 07 December)

Event Time Altitude Azimuth Distance (km) Brightness Sun altitude
Rises 01:45:06 0° 172° (S) 3,026 7.2 -12.0°
Reaches altitude 10° 01:47:20 10° 174° (S) 2,115 6.4 -12.5°
Maximum altitude 01:51:57 71° 259° (W) 722 4.1 -13.4°
Drops below altitude 10° 01:56:36 10° 343° (NNW) 2,127 6.4 -14.4°
Sets 01:58:51 0° 346° (NNW) 3,046 7.1 -14.8°
